Date,TemperatureHighF,TemperatureAvgF,TemperatureLowF,DewpointHighF,DewpointAvgF,DewpointLowF,HumidityHigh,HumidityAvg,HumidityLow,PressureMaxIn,PressureMinIn,WindSpeedMaxMPH,WindSpeedAvgMPH,GustSpeedMaxMPH,PrecipitationSumIn
2014-2-1,83.4,66.6,73.0,75.0,46.8,-99.9,91,70,69,30.05,29.96,23,-140,26,0.08
2014-2-2,83.3,66.3,72.8,74.0,47.0,-99.9,93,71,72,30.05,29.95,18,-142,23,0.14
2014-2-3,84.1,68.6,73.6,74.0,50.0,-99.9,90,70,70,30.04,29.95,17,-122,23,0.02
2014-2-4,84.0,67.2,73.9,73.0,45.4,-99.9,89,65,66,30.08,29.97,15,-143,25,0.12
2014-2-5,83.6,66.8,72.8,73.0,46.9,-99.9,92,69,68,30.06,29.94,14,-136,30,0.35
2014-2-6,83.3,66.2,72.3,76.0,47.6,-99.9,94,73,72,30.06,29.97,16,-141,22,0.44
2014-2-7,83.4,66.3,72.6,75.0,44.7,-99.9,94,67,71,30.09,29.99,14,-155,25,0.34
2014-2-8,82.6,65.8,74.7,75.0,45.2,-99.9,89,69,73,30.08,29.98,15,-153,19,0.07
2014-2-9,84.8,67.2,72.3,75.0,47.4,-99.9,94,70,70,30.05,29.93,16,-142,21,0.00
2014-2-10,84.3,67.3,73.3,75.0,46.5,-99.9,93,68,70,30.04,29.92,15,-146,21,0.00
2014-2-11,84.1,68.0,73.1,74.0,48.2,-99.9,89,68,69,30.04,29.95,14,-133,24,0.00
2014-2-12,83.8,67.7,73.5,73.0,47.7,-99.9,90,68,68,30.06,29.91,14,-134,24,0.00
2014-2-13,88.0,81.7,76.3,74.0,71.5,69.0,85,72,55,30.02,29.91,10,4,18,0.00
2014-2-14,90.7,70.4,74.4,76.0,49.2,-99.9,88,65,53,30.07,29.94,11,-132,16,0.00
2014-2-15,87.2,69.0,75.6,72.0,46.4,-99.9,86,62,49,30.11,30.00,18,-133,21,0.00
2014-2-16,86.2,68.3,73.0,73.0,47.3,-99.9,90,65,55,30.08,29.97,14,-131,24,0.00
2014-2-17,84.2,64.5,72.9,71.0,40.0,-99.9,89,62,61,30.04,29.96,13,-169,21,0.13
2014-2-18,84.2,67.7,74.2,74.0,49.5,-99.9,93,71,70,30.08,29.96,15,-122,21,0.05
2014-2-19,83.6,66.1,72.5,73.0,44.3,-99.9,94,67,58,30.06,29.95,21,-150,27,0.58
2014-2-20,83.6,69.1,76.0,73.0,49.2,-99.9,85,66,67,30.09,30.00,19,-119,23,0.03
2014-2-21,82.9,67.1,73.3,75.0,47.9,-99.9,93,70,70,30.07,29.98,16,-132,22,0.20
2014-2-22,82.8,66.9,74.0,74.0,48.0,-99.9,89,70,71,30.07,29.97,17,-130,24,0.20
2014-2-23,83.4,68.2,74.8,72.0,47.2,-99.9,87,65,63,30.08,29.97,18,-131,23,0.01
2014-2-24,83.5,68.1,73.0,72.0,48.7,-99.9,90,68,64,30.05,29.94,16,-123,21,0.03
2014-2-25,84.0,68.6,73.3,73.0,48.8,-99.9,88,67,65,30.03,29.89,16,-121,23,0.00
2014-2-26,84.2,68.2,71.6,72.0,47.6,-99.9,84,65,62,30.00,29.86,17,-124,22,0.00
2014-2-27,88.8,68.9,72.6,74.0,47.7,-99.9,90,64,51,30.01,29.90,13,-128,19,0.00
2014-2-28,85.9,68.1,73.7,73.0,47.2,-99.9,87,66,61,30.04,29.93,14,-132,22,0.00